This demonstration page uses our WeatherBlox Daily Observations layout. Learn more.

41.55636, -103.73856

Hourly Observations for March 11, 2019

Temp ( °F °C ) Dew Point ( °F °C ) Humidity (%) Winds ( mph kmh ) Pressure ( in mb ) Visibility ( mi km ) Precip ( " mm )
12:58 am 00:58 Mostly Cloudy 33 0.6 28 -2.5 80 80 NNE 7 11 30.15 1021 10 16.0934 0 0
1:58 am 01:58 Mostly Cloudy 33 0.3 26 -3.3 77 77 N 5 7 30.17 1022 10 16.0934 0 0
2:58 am 02:58 Mostly Cloudy 33 0.3 26 -3.4 76 76 N 3 6 30.2 1023 10 16.0934 0 0
3:58 am 03:58 Mostly Cloudy 32 -0.2 26 -3.6 78 78 Calm 30.21 1023 10 16.0934 0 0
4:58 am 04:58 Partly Cloudy 29 -1.5 25 -4.1 83 83 NE 6 9 30.23 1024 10 16.0934 0 0
5:58 am 05:58 Partly Cloudy 26 -3.1 24 -4.5 90 90 Calm 30.23 1024 10 16.0934 0 0
6:58 am 06:58 Clear 24 -4.4 21 -5.9 89 89 N 6 9 30.24 1024 10 16.0934 0 0
7:58 am 07:58 Clear 23 -5 21 -6.3 91 91 N 6 9 30.25 1024 10 16.0934 0 0
8:58 am 08:58 Clear 22 -5.7 20 -6.4 95 95 N 5 7 30.25 1024 7 11.26538 0 0
9:58 am 09:58 Clear with Mist and Fog 19 -7.1 17 -8.1 93 93 W 6 9 30.27 1025 5 8.0467 0 0
10:58 am 10:58 Mostly Cloudy with Freezing Fog 19 -7.4 17 -8.5 92 92 WNW 6 9 30.27 1025 5 8.0467 0 0
11:58 am 11:58 Mostly Clear with Mist and Fog 20 -6.6 18 -7.8 91 91 WNW 5 7 30.29 1026 1 1.60934 0 0
12:58 pm 12:58 Mostly Clear with Mist and Fog 20 -6.5 19 -7.5 93 93 W 7 11 30.3 1026 3 4.82802 0 0
1:58 pm 13:58 Sunny 22 -5.8 20 -6.5 95 95 SW 3 6 30.31 1027 7 11.26538 0 0
2:58 pm 14:58 Sunny 26 -3.4 25 -3.9 96 96 S 3 6 30.28 1025 10 16.0934 0 0
3:58 pm 15:58 Sunny 29 -1.5 28 -2.3 94 94 S 9 15 30.29 1026 10 16.0934 0 0
4:58 pm 16:58 Sunny 33 0.8 28 -2.4 79 79 S 10 17 30.24 1024 10 16.0934 0 0
5:58 pm 17:58 Sunny 35 1.5 29 -1.6 80 80 SSW 8 13 30.27 1025 10 16.0934 0 0
6:58 pm 18:58 Sunny 36 2.4 30 -1.2 77 77 SSW 8 13 30.24 1024 10 16.0934 0 0
7:58 pm 19:58 Sunny 38 3.5 30 -1.1 72 72 S 8 13 30.18 1022 10 16.0934 0 0
8:58 pm 20:58 Sunny 40 4.2 31 -0.8 70 70 SSW 6 9 30.16 1021 10 16.0934 0 0
9:58 pm 21:58 Mostly Sunny 42 5.5 31 -0.5 66 66 Calm 30.16 1021 10 16.0934 0 0
10:58 pm 22:58 Sunny 40 4.6 31 -0.7 69 69 Calm 30.16 1021 10 16.0934 0 0
11:58 pm 23:58 Sunny 41 5.2 31 -0.7 66 66 Calm 30.14 1021 10 16.0934 0 0

Powered by AerisWeather